Location: Home
(42.5358°N, 72.7383°W)
Time: 04:28:29
(UTC-04:00)

Vanguard 1 - Pass Details

Date: 28 May 2022
Orbit: 649 x 3832 km, 34.2° (Epoch: 24 June)

Event Time Altitude Azimuth Distance (km) Brightness Sun altitude
Exits shadow 01:36:21 33° 211° (SSW) 3,374 12.2 -25.0°
Maximum altitude 01:43:11 54° 155° (SSE) 3,244 12.3 -24.8°
Drops below altitude 10° 02:03:31 10° 87° (E) 6,819 14.6 -23.7°
Sets 02:09:21 0° 84° (E) 7,964 15.0 -23.3°
